Year,Month,Day,Hour,Minute,Value (Times are PST for temperature in C)
2012,05,25,00,00,8.70
2012,05,25,00,01,8.70
2012,05,25,00,02,8.60
2012,05,25,00,03,8.60
2012,05,25,00,04,8.60
2012,05,25,00,05,8.60
2012,05,25,00,06,8.60
2012,05,25,00,07,8.50
2012,05,25,00,08,8.50
2012,05,25,00,09,8.50
2012,05,25,00,10,8.40
2012,05,25,00,11,8.40
2012,05,25,00,12,8.40
2012,05,25,00,13,8.40
2012,05,25,00,14,8.40
2012,05,25,00,15,8.40
2012,05,25,00,16,8.40
2012,05,25,00,17,8.40
2012,05,25,00,18,8.40
2012,05,25,00,19,8.30
2012,05,25,00,20,8.40
2012,05,25,00,21,8.40
2012,05,25,00,22,8.30
2012,05,25,00,23,8.30
2012,05,25,00,24,8.30
2012,05,25,00,25,8.30
2012,05,25,00,26,8.30
2012,05,25,00,27,8.30
2012,05,25,00,28,8.30
2012,05,25,00,29,8.30
2012,05,25,00,30,8.30
2012,05,25,00,31,8.30
2012,05,25,00,32,8.30
2012,05,25,00,33,8.30
2012,05,25,00,34,8.30
2012,05,25,00,35,8.30
2012,05,25,00,36,8.40
2012,05,25,00,37,8.40
2012,05,25,00,38,8.40
2012,05,25,00,39,8.50
2012,05,25,00,40,8.50
2012,05,25,00,41,8.50
2012,05,25,00,42,8.60
2012,05,25,00,43,8.60
2012,05,25,00,44,8.60
2012,05,25,00,45,8.60
2012,05,25,00,46,8.60
2012,05,25,00,47,8.70
2012,05,25,00,48,8.70
2012,05,25,00,49,8.80
2012,05,25,00,50,8.90
2012,05,25,00,51,9.00
2012,05,25,00,52,9.10
2012,05,25,00,53,9.10
2012,05,25,00,54,9.20
2012,05,25,00,55,9.20
2012,05,25,00,56,9.20
2012,05,25,00,57,9.20
2012,05,25,00,58,9.30
2012,05,25,00,59,9.30
2012,05,25,01,00,9.30
2012,05,25,01,01,9.30
2012,05,25,01,02,9.30
2012,05,25,01,03,9.20
2012,05,25,01,04,9.20
2012,05,25,01,05,9.20
2012,05,25,01,06,9.10
2012,05,25,01,07,9.10
2012,05,25,01,08,9.10
2012,05,25,01,09,9.00
2012,05,25,01,10,9.00
2012,05,25,01,11,9.00
2012,05,25,01,12,9.10
2012,05,25,01,13,9.10
2012,05,25,01,14,9.10
2012,05,25,01,15,9.20
2012,05,25,01,16,9.20
2012,05,25,01,17,9.20
2012,05,25,01,18,9.30
2012,05,25,01,19,9.30
2012,05,25,01,20,9.30
2012,05,25,01,21,9.30
2012,05,25,01,22,9.30
2012,05,25,01,23,9.40
2012,05,25,01,24,9.40
2012,05,25,01,25,9.40
2012,05,25,01,26,9.40
2012,05,25,01,27,9.40
2012,05,25,01,28,9.50
2012,05,25,01,29,9.50
2012,05,25,01,30,9.50
2012,05,25,01,31,9.60
2012,05,25,01,32,9.60
2012,05,25,01,33,9.60
2012,05,25,01,34,9.70
2012,05,25,01,35,9.70
2012,05,25,01,36,9.70
2012,05,25,01,37,9.70
2012,05,25,01,38,9.60
2012,05,25,01,39,9.60
2012,05,25,01,40,9.60
2012,05,25,01,41,9.60
2012,05,25,01,42,9.50
2012,05,25,01,43,9.50
2012,05,25,01,44,9.50
2012,05,25,01,45,9.50
2012,05,25,01,46,9.50
2012,05,25,01,47,9.50
2012,05,25,01,48,9.50
2012,05,25,01,49,9.50
2012,05,25,01,50,9.40
2012,05,25,01,51,9.40
2012,05,25,01,52,9.40
2012,05,25,01,53,9.30
2012,05,25,01,54,9.30
2012,05,25,01,55,9.30
2012,05,25,01,56,9.30
2012,05,25,01,57,9.20
2012,05,25,01,58,9.30
2012,05,25,01,59,9.30
2012,05,25,02,00,9.30
2012,05,25,02,01,9.30
2012,05,25,02,02,9.30
2012,05,25,02,03,9.30
2012,05,25,02,04,9.30
2012,05,25,02,05,9.30
2012,05,25,02,06,9.30
2012,05,25,02,07,9.30
2012,05,25,02,08,9.30
2012,05,25,02,09,9.30
2012,05,25,02,10,9.30
2012,05,25,02,11,9.30
2012,05,25,02,12,9.30
2012,05,25,02,13,9.20
2012,05,25,02,14,9.20
2012,05,25,02,15,9.20
2012,05,25,02,16,9.20
2012,05,25,02,17,9.20
2012,05,25,02,18,9.20
2012,05,25,02,19,9.20
2012,05,25,02,20,9.20
2012,05,25,02,21,9.20
2012,05,25,02,22,9.20
2012,05,25,02,23,9.20
2012,05,25,02,24,9.20
2012,05,25,02,25,9.20
2012,05,25,02,26,9.20
2012,05,25,02,27,9.20
2012,05,25,02,28,9.20
2012,05,25,02,29,9.20
2012,05,25,02,30,9.20
2012,05,25,02,31,9.20
2012,05,25,02,32,9.20
2012,05,25,02,33,9.20
2012,05,25,02,34,9.10
2012,05,25,02,35,9.10
2012,05,25,02,36,9.10
2012,05,25,02,37,9.10
2012,05,25,02,38,9.10
2012,05,25,02,39,9.10
2012,05,25,02,40,9.10
2012,05,25,02,41,9.10
2012,05,25,02,42,9.10
2012,05,25,02,43,9.10
2012,05,25,02,44,9.10
2012,05,25,02,45,9.10
2012,05,25,02,46,9.10
2012,05,25,02,47,9.10
2012,05,25,02,48,9.10
2012,05,25,02,49,9.10
2012,05,25,02,50,9.10
2012,05,25,02,51,9.10
2012,05,25,02,52,9.10
2012,05,25,02,53,9.10
2012,05,25,02,54,9.10
2012,05,25,02,55,9.10
2012,05,25,02,56,9.10
2012,05,25,02,57,9.10
2012,05,25,02,58,9.10
2012,05,25,02,59,9.10
2012,05,25,03,00,9.10
2012,05,25,03,01,9.10
2012,05,25,03,02,9.10
2012,05,25,03,06,9.00
2012,05,25,03,07,9.00
2012,05,25,03,08,8.90
2012,05,25,03,09,8.90
2012,05,25,03,10,8.90
2012,05,25,03,11,8.90
2012,05,25,03,12,8.90
2012,05,25,03,13,8.90
2012,05,25,03,14,8.90
2012,05,25,03,15,8.90
2012,05,25,03,16,8.90
2012,05,25,03,17,8.90
2012,05,25,03,18,8.90
2012,05,25,03,19,9.00
2012,05,25,03,20,9.00
2012,05,25,03,21,9.00
2012,05,25,03,22,9.10
2012,05,25,03,23,9.10
2012,05,25,03,24,9.10
2012,05,25,03,25,9.10
2012,05,25,03,26,9.10
2012,05,25,03,27,9.10
2012,05,25,03,28,9.10
2012,05,25,03,29,9.10
2012,05,25,03,30,9.10
2012,05,25,03,31,9.10
2012,05,25,03,32,9.10
2012,05,25,03,33,9.10
2012,05,25,03,34,9.10
2012,05,25,03,35,9.10
2012,05,25,03,36,9.10
2012,05,25,03,37,9.10
2012,05,25,03,38,9.10
2012,05,25,03,39,9.10
2012,05,25,03,40,9.20
2012,05,25,03,41,9.20
2012,05,25,03,42,9.20
2012,05,25,03,43,9.20
2012,05,25,03,44,9.20
2012,05,25,03,45,9.30
2012,05,25,03,46,9.30
2012,05,25,03,47,9.40
2012,05,25,03,48,9.40
2012,05,25,03,49,9.40
2012,05,25,03,50,9.50
2012,05,25,03,51,9.50
2012,05,25,03,52,9.60
2012,05,25,03,53,9.60
2012,05,25,03,54,9.70
2012,05,25,03,55,9.70
2012,05,25,03,56,9.80
2012,05,25,03,57,9.90
2012,05,25,03,58,9.90
2012,05,25,03,59,10.00
2012,05,25,04,00,10.00
2012,05,25,04,01,10.10
2012,05,25,04,02,10.10
2012,05,25,04,03,10.10
2012,05,25,04,04,10.20
2012,05,25,04,05,10.20
2012,05,25,04,06,10.20
2012,05,25,04,07,10.20
2012,05,25,04,08,10.20
2012,05,25,04,09,10.10
2012,05,25,04,10,10.10
2012,05,25,04,11,10.10
2012,05,25,04,12,10.00
2012,05,25,04,13,10.00
2012,05,25,04,14,10.00
2012,05,25,04,15,10.00
2012,05,25,04,16,9.90
2012,05,25,04,17,9.90
2012,05,25,04,18,9.90
2012,05,25,04,19,9.80
2012,05,25,04,20,9.80
2012,05,25,04,21,9.70
2012,05,25,04,22,9.70
2012,05,25,04,23,9.70
2012,05,25,04,24,9.60
2012,05,25,04,25,9.60
2012,05,25,04,26,9.60
2012,05,25,04,27,9.50
2012,05,25,04,28,9.50
2012,05,25,04,29,9.50
2012,05,25,04,30,9.50
2012,05,25,04,31,9.50
2012,05,25,04,32,9.60
2012,05,25,04,33,9.60
2012,05,25,04,34,9.70
2012,05,25,04,35,9.70
2012,05,25,04,36,9.70
2012,05,25,04,37,9.70
2012,05,25,04,38,9.70
2012,05,25,04,39,9.70
2012,05,25,04,40,9.70
2012,05,25,04,41,9.70
2012,05,25,04,42,9.70
2012,05,25,04,43,9.70
2012,05,25,04,44,9.70
2012,05,25,04,45,9.80
2012,05,25,04,46,9.80
2012,05,25,04,47,9.80
2012,05,25,04,48,9.90
2012,05,25,04,49,9.90
2012,05,25,04,50,9.90
2012,05,25,04,51,9.90
2012,05,25,04,52,9.90
2012,05,25,04,53,9.90
2012,05,25,04,54,10.00
2012,05,25,04,55,10.00
2012,05,25,04,56,10.10
2012,05,25,04,57,10.10
2012,05,25,04,58,10.10
2012,05,25,04,59,10.10
2012,05,25,05,00,10.10
2012,05,25,05,01,10.20
2012,05,25,05,02,10.20
2012,05,25,05,03,10.20
2012,05,25,05,04,10.20
2012,05,25,05,05,10.20
2012,05,25,05,06,10.20
2012,05,25,05,07,10.20
2012,05,25,05,08,10.20
2012,05,25,05,09,10.20
2012,05,25,05,10,10.20
2012,05,25,05,11,10.20
2012,05,25,05,12,10.20
2012,05,25,05,13,10.20
2012,05,25,05,14,10.20
2012,05,25,05,15,10.20
2012,05,25,05,16,10.10
2012,05,25,05,17,10.10
2012,05,25,05,18,10.10
2012,05,25,05,19,10.10
2012,05,25,05,20,10.10
2012,05,25,05,21,10.00
2012,05,25,05,22,9.90
2012,05,25,05,23,9.90
2012,05,25,05,24,9.80
2012,05,25,05,25,9.80
2012,05,25,05,26,9.70
2012,05,25,05,27,9.70
2012,05,25,05,28,9.70
2012,05,25,05,29,9.70
2012,05,25,05,30,9.80
2012,05,25,05,31,9.80
2012,05,25,05,32,9.90
2012,05,25,05,33,9.90
2012,05,25,05,34,9.90
2012,05,25,05,35,9.90
2012,05,25,05,36,10.00
2012,05,25,05,37,10.00
2012,05,25,05,38,10.10
2012,05,25,05,39,10.10
2012,05,25,05,40,10.10
2012,05,25,05,41,10.20
2012,05,25,05,42,10.20
2012,05,25,05,43,10.30
2012,05,25,05,44,10.30
2012,05,25,05,45,10.30
2012,05,25,05,46,10.30
2012,05,25,05,47,10.40
2012,05,25,05,48,10.40
2012,05,25,05,49,10.50
2012,05,25,05,50,10.50
2012,05,25,05,51,10.50
2012,05,25,05,52,10.60
2012,05,25,05,53,10.60
2012,05,25,05,54,10.70
2012,05,25,05,55,10.70
2012,05,25,05,56,10.70
2012,05,25,05,57,10.80
2012,05,25,05,58,10.80
2012,05,25,05,59,10.80
2012,05,25,06,00,10.80
2012,05,25,06,01,10.80
2012,05,25,06,02,10.80
2012,05,25,06,03,10.80
2012,05,25,06,04,10.90
2012,05,25,06,05,10.90
2012,05,25,06,06,10.90
2012,05,25,06,07,11.00
2012,05,25,06,08,11.10
2012,05,25,06,09,11.10
2012,05,25,06,10,11.20
2012,05,25,06,11,11.20
2012,05,25,06,12,11.20
2012,05,25,06,13,11.30
2012,05,25,06,14,11.30
2012,05,25,06,15,11.40
2012,05,25,06,16,11.40
2012,05,25,06,17,11.40
2012,05,25,06,18,11.50
2012,05,25,06,19,11.50
2012,05,25,06,20,11.60
2012,05,25,06,21,11.70
2012,05,25,06,22,11.70
2012,05,25,06,23,11.70
2012,05,25,06,24,11.80
2012,05,25,06,25,11.80
2012,05,25,06,26,11.80
2012,05,25,06,27,11.80
2012,05,25,06,28,11.80
2012,05,25,06,29,11.90
2012,05,25,06,30,11.90
2012,05,25,06,31,11.90
2012,05,25,06,32,11.90
2012,05,25,06,33,12.00
2012,05,25,06,34,12.00
2012,05,25,06,35,12.00
2012,05,25,06,36,12.10
2012,05,25,06,37,12.10
2012,05,25,06,38,12.10
2012,05,25,06,39,12.20
2012,05,25,06,40,12.20
2012,05,25,06,41,12.30
2012,05,25,06,42,12.40
2012,05,25,06,43,12.50
2012,05,25,06,44,12.60
2012,05,25,06,45,12.60
2012,05,25,06,46,12.70
2012,05,25,06,47,12.80
2012,05,25,06,48,12.80
2012,05,25,06,49,12.90
2012,05,25,06,50,12.90
2012,05,25,06,51,13.00
2012,05,25,06,52,13.00
2012,05,25,06,53,13.00
2012,05,25,06,54,13.10
2012,05,25,06,55,13.10
2012,05,25,06,56,13.20
2012,05,25,06,57,13.20
2012,05,25,06,58,13.20
2012,05,25,06,59,13.30
2012,05,25,07,00,13.30
2012,05,25,07,01,13.30
2012,05,25,07,02,13.40
2012,05,25,07,03,13.40
2012,05,25,07,04,13.40
2012,05,25,07,05,13.50
2012,05,25,07,06,13.50
2012,05,25,07,07,13.50
2012,05,25,07,08,13.60
2012,05,25,07,09,13.60
2012,05,25,07,10,13.60
2012,05,25,07,11,13.70
2012,05,25,07,12,13.70
2012,05,25,07,13,13.70
2012,05,25,07,14,13.80
2012,05,25,07,15,13.80
2012,05,25,07,16,13.80
2012,05,25,07,17,13.80
2012,05,25,07,18,13.90
2012,05,25,07,19,13.90
2012,05,25,07,20,13.90
2012,05,25,07,21,14.00
2012,05,25,07,22,14.00
2012,05,25,07,23,14.00
2012,05,25,07,24,14.10
2012,05,25,07,25,14.10
2012,05,25,07,26,14.10
2012,05,25,07,27,14.20
2012,05,25,07,28,14.20
2012,05,25,07,29,14.20
2012,05,25,07,30,14.30
2012,05,25,07,31,14.30
2012,05,25,07,32,14.30
2012,05,25,07,33,14.30
2012,05,25,07,34,14.30
2012,05,25,07,35,14.30
2012,05,25,07,36,14.40
2012,05,25,07,37,14.40
2012,05,25,07,38,14.40
2012,05,25,07,39,14.50
2012,05,25,07,40,14.50
2012,05,25,07,41,14.60
2012,05,25,07,42,14.60
2012,05,25,07,43,14.60
2012,05,25,07,44,14.60
2012,05,25,07,45,14.70
2012,05,25,07,46,14.70
2012,05,25,07,47,14.70
2012,05,25,07,48,14.70
2012,05,25,07,49,14.80
2012,05,25,07,50,14.80
2012,05,25,07,51,14.90
2012,05,25,07,52,15.00
2012,05,25,07,53,15.10
2012,05,25,07,54,15.10
2012,05,25,07,55,15.20
2012,05,25,07,56,15.30
2012,05,25,07,57,15.40
2012,05,25,07,58,15.40
2012,05,25,07,59,15.50
2012,05,25,08,00,15.50
2012,05,25,08,01,15.60
2012,05,25,08,02,15.60
2012,05,25,08,03,15.70
2012,05,25,08,04,15.70
2012,05,25,08,05,15.70
2012,05,25,08,06,15.70
2012,05,25,08,07,15.70
2012,05,25,08,08,15.80
2012,05,25,08,09,15.80
2012,05,25,08,10,15.80
2012,05,25,08,11,15.80
2012,05,25,08,12,15.80
2012,05,25,08,13,15.80
2012,05,25,08,14,15.80
2012,05,25,08,15,15.70
2012,05,25,08,16,15.70
2012,05,25,08,17,15.70
2012,05,25,08,18,15.60
2012,05,25,08,19,15.60
2012,05,25,08,20,15.60
2012,05,25,08,21,15.60
2012,05,25,08,22,15.60
2012,05,25,08,23,15.60
2012,05,25,08,24,15.60
2012,05,25,08,25,15.60
2012,05,25,08,26,15.60
2012,05,25,08,27,15.70
2012,05,25,08,28,15.70
2012,05,25,08,29,15.70
2012,05,25,08,30,15.80
2012,05,25,08,31,15.80
2012,05,25,08,32,15.80
2012,05,25,08,33,15.80
2012,05,25,08,34,15.90
2012,05,25,08,35,15.90
2012,05,25,08,36,15.90
2012,05,25,08,37,15.90
2012,05,25,08,38,15.80
2012,05,25,08,39,15.80
2012,05,25,08,40,15.80
2012,05,25,08,41,15.90
2012,05,25,08,42,15.90
2012,05,25,08,43,15.90
2012,05,25,08,44,15.90
2012,05,25,08,45,15.90
2012,05,25,08,46,16.00
2012,05,25,08,47,16.00
2012,05,25,08,48,16.10
2012,05,25,08,49,16.10
2012,05,25,08,50,16.20
2012,05,25,08,51,16.20
2012,05,25,08,52,16.30
2012,05,25,08,53,16.30
2012,05,25,08,54,16.40
2012,05,25,08,55,16.50
2012,05,25,08,56,16.60
2012,05,25,08,57,16.60
2012,05,25,08,58,16.70
2012,05,25,08,59,16.70
2012,05,25,09,00,16.80
2012,05,25,09,01,16.80
2012,05,25,09,02,16.80
2012,05,25,09,03,16.80
2012,05,25,09,04,16.80
2012,05,25,09,05,16.80
2012,05,25,09,06,16.80
2012,05,25,09,07,16.80
2012,05,25,09,08,16.80
2012,05,25,09,09,16.80
2012,05,25,09,10,16.80
2012,05,25,09,11,16.90
2012,05,25,09,12,16.90
2012,05,25,09,13,17.00
2012,05,25,09,14,17.00
2012,05,25,09,15,17.10
2012,05,25,09,16,17.20
2012,05,25,09,17,17.20
2012,05,25,09,18,17.20
2012,05,25,09,19,17.30
2012,05,25,09,20,17.30
2012,05,25,09,21,17.40
2012,05,25,09,22,17.40
2012,05,25,09,23,17.50
2012,05,25,09,24,17.60
2012,05,25,09,25,17.60
2012,05,25,09,26,17.60
2012,05,25,09,27,17.70
2012,05,25,09,28,17.70
2012,05,25,09,29,17.70
2012,05,25,09,30,17.70
2012,05,25,09,31,17.70
2012,05,25,09,32,17.70
2012,05,25,09,33,17.70
2012,05,25,09,34,17.70
2012,05,25,09,35,17.80
2012,05,25,09,36,17.80
2012,05,25,09,37,17.90
2012,05,25,09,38,17.90
2012,05,25,09,39,18.00
2012,05,25,09,40,18.00
2012,05,25,09,41,18.10
2012,05,25,09,42,18.00
2012,05,25,09,43,17.90
2012,05,25,09,44,17.90
2012,05,25,09,45,17.90
2012,05,25,09,46,17.90
2012,05,25,09,47,17.90
2012,05,25,09,48,17.80
2012,05,25,09,49,17.80
2012,05,25,09,50,17.80
2012,05,25,09,51,17.90
2012,05,25,09,52,17.90
2012,05,25,09,53,17.90
2012,05,25,09,54,17.90
2012,05,25,09,55,17.90
2012,05,25,09,56,17.80
2012,05,25,09,57,17.70
2012,05,25,09,58,17.60
2012,05,25,09,59,17.60
2012,05,25,10,00,17.60
2012,05,25,10,01,17.70
2012,05,25,10,02,17.70
2012,05,25,10,03,17.80
2012,05,25,10,04,17.80
2012,05,25,10,05,18.00
2012,05,25,10,06,18.10
2012,05,25,10,07,18.20
2012,05,25,10,08,18.20
2012,05,25,10,09,18.30
2012,05,25,10,10,18.40
2012,05,25,10,11,18.40
2012,05,25,10,12,18.40
2012,05,25,10,13,18.50
2012,05,25,10,14,18.50
2012,05,25,10,15,18.40
2012,05,25,10,16,18.40
2012,05,25,10,17,18.30
2012,05,25,10,18,18.30
2012,05,25,10,19,18.40
2012,05,25,10,20,18.40
2012,05,25,10,21,18.40
2012,05,25,10,22,18.40
2012,05,25,10,23,18.40
2012,05,25,10,24,18.40
2012,05,25,10,25,18.40
2012,05,25,10,26,18.40
2012,05,25,10,27,18.50
2012,05,25,10,28,18.50
2012,05,25,10,29,18.50
2012,05,25,10,30,18.60
2012,05,25,10,31,18.50
2012,05,25,10,32,18.50
2012,05,25,10,33,18.40
2012,05,25,10,34,18.30
2012,05,25,10,35,18.30
2012,05,25,10,36,18.30
2012,05,25,10,37,18.30
2012,05,25,10,38,18.30
2012,05,25,10,39,18.30
2012,05,25,10,40,18.30
2012,05,25,10,41,18.40
2012,05,25,10,42,18.40
2012,05,25,10,43,18.40
2012,05,25,10,44,18.50
2012,05,25,10,45,18.50
2012,05,25,10,46,18.60
2012,05,25,10,47,18.70
2012,05,25,10,48,18.80
2012,05,25,10,49,18.90
2012,05,25,10,50,19.00
2012,05,25,10,51,19.00
2012,05,25,10,52,19.10
2012,05,25,10,53,19.20
2012,05,25,10,54,19.30
2012,05,25,10,55,19.40
2012,05,25,10,56,19.40
2012,05,25,10,57,19.50
2012,05,25,10,58,19.60
2012,05,25,10,59,19.70
2012,05,25,11,00,19.80
2012,05,25,11,01,19.90
2012,05,25,11,02,20.00
2012,05,25,11,03,20.10
2012,05,25,11,04,20.20
2012,05,25,11,05,20.20
2012,05,25,11,06,20.30
2012,05,25,11,07,20.30
2012,05,25,11,08,20.40
2012,05,25,11,09,20.40
2012,05,25,11,10,20.40
2012,05,25,11,11,20.40
2012,05,25,11,12,20.30
2012,05,25,11,13,20.20
2012,05,25,11,14,20.20
2012,05,25,11,15,20.10
2012,05,25,11,16,20.00
2012,05,25,11,17,19.90
2012,05,25,11,18,19.90
2012,05,25,11,19,19.80
2012,05,25,11,20,19.80
2012,05,25,11,21,19.80
2012,05,25,11,22,19.80
2012,05,25,11,23,19.80
2012,05,25,11,24,19.80
2012,05,25,11,25,19.80
2012,05,25,11,26,19.80
2012,05,25,11,27,19.80
2012,05,25,11,28,19.80
2012,05,25,11,29,19.80
2012,05,25,11,30,19.80
2012,05,25,11,31,19.70
2012,05,25,11,32,19.80
2012,05,25,11,33,19.80
2012,05,25,11,34,19.80
2012,05,25,11,35,19.90
2012,05,25,11,36,19.90
2012,05,25,11,37,20.00
2012,05,25,11,38,20.00
2012,05,25,11,39,20.00
2012,05,25,11,40,20.00
2012,05,25,11,41,19.90
2012,05,25,11,42,19.90
2012,05,25,11,43,19.90
2012,05,25,11,44,19.90
2012,05,25,11,45,19.90
2012,05,25,11,46,19.80
2012,05,25,11,47,19.80
2012,05,25,11,48,19.80
2012,05,25,11,49,19.80
2012,05,25,11,50,19.70
2012,05,25,11,51,19.60
2012,05,25,11,52,19.60
2012,05,25,11,53,19.60
2012,05,25,11,54,19.60
2012,05,25,11,55,19.50
2012,05,25,11,56,19.50
2012,05,25,11,57,19.40
2012,05,25,11,58,19.40
2012,05,25,11,59,19.40
2012,05,25,12,00,19.40
2012,05,25,12,01,19.40
2012,05,25,12,02,19.40
2012,05,25,12,03,19.40
2012,05,25,12,04,19.30
2012,05,25,12,05,19.30
2012,05,25,12,06,19.30
2012,05,25,12,07,19.30
2012,05,25,12,08,19.40
2012,05,25,12,09,19.40
2012,05,25,12,10,19.40
2012,05,25,12,11,19.40
2012,05,25,12,12,19.40
2012,05,25,12,13,19.40
2012,05,25,12,14,19.40
2012,05,25,12,15,19.40
2012,05,25,12,16,19.30
2012,05,25,12,17,19.30
2012,05,25,12,18,19.30
2012,05,25,12,19,19.30
2012,05,25,12,20,19.40
2012,05,25,12,21,19.50
2012,05,25,12,22,19.60
2012,05,25,12,23,19.70
2012,05,25,12,24,19.80
2012,05,25,12,25,19.90
2012,05,25,12,26,20.00
2012,05,25,12,27,20.00
2012,05,25,12,28,20.10
2012,05,25,12,29,20.20
2012,05,25,12,30,20.30
2012,05,25,12,31,20.30
2012,05,25,12,32,20.40
2012,05,25,12,33,20.50
2012,05,25,12,34,20.70
2012,05,25,12,35,20.80
2012,05,25,12,36,20.90
2012,05,25,12,37,20.90
2012,05,25,12,38,21.00
2012,05,25,12,39,21.00
2012,05,25,12,40,21.00
2012,05,25,12,41,21.00
2012,05,25,12,42,21.10
2012,05,25,12,43,21.20
2012,05,25,12,44,21.30
2012,05,25,12,45,21.40
2012,05,25,12,46,21.50
2012,05,25,12,47,21.60
2012,05,25,12,48,21.60
2012,05,25,12,49,21.60
2012,05,25,12,50,21.60
2012,05,25,12,51,21.50
2012,05,25,12,52,21.50
2012,05,25,12,53,21.50
2012,05,25,12,54,21.50
2012,05,25,12,55,21.60
2012,05,25,12,56,21.60
2012,05,25,12,57,21.70
2012,05,25,12,58,21.70
2012,05,25,12,59,21.60
2012,05,25,13,00,21.60
2012,05,25,13,01,21.60
2012,05,25,13,02,21.70
2012,05,25,13,03,21.70
2012,05,25,13,04,21.70
2012,05,25,13,05,21.70
2012,05,25,13,06,21.70
2012,05,25,13,07,21.80
2012,05,25,13,08,21.80
2012,05,25,13,09,21.80
2012,05,25,13,10,21.80
2012,05,25,13,11,21.80
2012,05,25,13,12,21.80
2012,05,25,13,13,21.90
2012,05,25,13,14,22.00
2012,05,25,13,15,22.10
2012,05,25,13,16,22.20
2012,05,25,13,17,22.30
2012,05,25,13,18,22.40
2012,05,25,13,19,22.40
2012,05,25,13,20,22.40
2012,05,25,13,21,22.40
2012,05,25,13,22,22.50
2012,05,25,13,23,22.50
2012,05,25,13,24,22.60
2012,05,25,13,25,22.70
2012,05,25,13,26,22.80
2012,05,25,13,27,22.90
2012,05,25,13,28,22.90
2012,05,25,13,29,23.00
2012,05,25,13,30,23.00
2012,05,25,13,31,23.00
2012,05,25,13,32,23.00
2012,05,25,13,33,23.00
2012,05,25,13,34,23.10
2012,05,25,13,35,23.20
2012,05,25,13,36,23.20
2012,05,25,13,37,23.20
2012,05,25,13,38,23.30
2012,05,25,13,39,23.30
2012,05,25,13,40,23.40
2012,05,25,13,41,23.40
2012,05,25,13,42,23.40
2012,05,25,13,43,23.40
2012,05,25,13,44,23.40
2012,05,25,13,45,23.30
2012,05,25,13,46,23.30
2012,05,25,13,47,23.20
2012,05,25,13,48,23.20
2012,05,25,13,49,23.20
2012,05,25,13,50,23.20
2012,05,25,13,51,23.20
2012,05,25,13,52,23.20
2012,05,25,13,53,23.30
2012,05,25,13,54,23.30
2012,05,25,13,55,23.30
2012,05,25,13,56,23.40
2012,05,25,13,57,23.40
2012,05,25,13,58,23.50
2012,05,25,13,59,23.60
2012,05,25,14,00,23.60
2012,05,25,14,01,23.60
2012,05,25,14,02,23.70
2012,05,25,14,03,23.70
2012,05,25,14,04,23.80
2012,05,25,14,05,23.90
2012,05,25,14,06,23.90
2012,05,25,14,07,24.00
2012,05,25,14,08,24.10
2012,05,25,14,09,24.10
2012,05,25,14,10,24.10
2012,05,25,14,11,24.10
2012,05,25,14,12,24.00
2012,05,25,14,13,24.00
2012,05,25,14,14,24.00
2012,05,25,14,15,24.00
2012,05,25,14,16,24.10
2012,05,25,14,17,24.10
2012,05,25,14,18,24.10
2012,05,25,14,19,24.10
2012,05,25,14,20,24.10
2012,05,25,14,21,24.20
2012,05,25,14,22,24.20
2012,05,25,14,23,24.20
2012,05,25,14,24,24.20
2012,05,25,14,25,24.10
2012,05,25,14,26,24.10
2012,05,25,14,27,24.00
2012,05,25,14,28,23.90
2012,05,25,14,29,23.70
2012,05,25,14,30,23.50
2012,05,25,14,31,23.30
2012,05,25,14,32,23.20
2012,05,25,14,33,23.00
2012,05,25,14,34,22.90
2012,05,25,14,35,22.80
2012,05,25,14,36,22.80
2012,05,25,14,37,22.80
2012,05,25,14,38,22.80
2012,05,25,14,39,22.80
2012,05,25,14,40,22.90
2012,05,25,14,41,22.80
2012,05,25,14,42,22.80
2012,05,25,14,43,22.80
2012,05,25,14,44,22.80
2012,05,25,14,45,22.90
2012,05,25,14,46,23.00
2012,05,25,14,47,23.00
2012,05,25,14,48,23.10
2012,05,25,14,49,23.20
2012,05,25,14,50,23.30
2012,05,25,14,51,23.30
2012,05,25,14,52,23.10
2012,05,25,14,53,23.10
2012,05,25,14,54,23.00
2012,05,25,14,55,23.00
2012,05,25,14,56,23.10
2012,05,25,14,57,23.10
2012,05,25,14,58,23.20
2012,05,25,14,59,23.20
2012,05,25,15,00,23.20
2012,05,25,15,01,23.20
2012,05,25,15,02,23.20
2012,05,25,15,03,23.20
2012,05,25,15,04,23.20
2012,05,25,15,05,23.30
2012,05,25,15,06,23.40
2012,05,25,15,07,23.50
2012,05,25,15,08,23.60
2012,05,25,15,09,23.70
2012,05,25,15,10,23.80
2012,05,25,15,11,23.80
2012,05,25,15,12,23.80
2012,05,25,15,13,23.90
2012,05,25,15,14,23.90
2012,05,25,15,15,23.90
2012,05,25,15,16,23.90
2012,05,25,15,17,23.90
2012,05,25,15,18,23.90
2012,05,25,15,19,24.00
2012,05,25,15,20,24.10
2012,05,25,15,21,24.20
2012,05,25,15,22,24.20
2012,05,25,15,23,24.20
2012,05,25,15,24,24.10
2012,05,25,15,25,24.00
2012,05,25,15,26,23.90
2012,05,25,15,27,23.90
2012,05,25,15,28,23.90
2012,05,25,15,29,23.90
2012,05,25,15,30,23.80
2012,05,25,15,31,23.80
2012,05,25,15,32,23.80
2012,05,25,15,33,23.90
2012,05,25,15,34,23.90
2012,05,25,15,35,24.00
2012,05,25,15,36,24.10
2012,05,25,15,37,24.20
2012,05,25,15,38,24.20
2012,05,25,15,39,24.10
2012,05,25,15,40,24.10
2012,05,25,15,41,24.00
2012,05,25,15,42,23.90
2012,05,25,15,43,23.90
2012,05,25,15,44,23.80
2012,05,25,15,45,23.70
2012,05,25,15,46,23.50
2012,05,25,15,47,23.40
2012,05,25,15,48,23.40
2012,05,25,15,49,23.40
2012,05,25,15,50,23.50
2012,05,25,15,51,23.60
2012,05,25,15,52,23.60
2012,05,25,15,53,23.60
2012,05,25,15,54,23.60
2012,05,25,15,55,23.70
2012,05,25,15,56,23.70
2012,05,25,15,57,23.80
2012,05,25,15,58,23.80
2012,05,25,15,59,23.80
2012,05,25,16,00,23.80
2012,05,25,16,01,23.90
2012,05,25,16,02,23.90
2012,05,25,16,03,24.00
2012,05,25,16,04,24.10
2012,05,25,16,05,24.10
2012,05,25,16,06,24.10
2012,05,25,16,07,24.20
2012,05,25,16,08,24.20
2012,05,25,16,09,24.30
2012,05,25,16,10,24.40
2012,05,25,16,11,24.40
2012,05,25,16,12,24.40
2012,05,25,16,13,24.40
2012,05,25,16,14,24.30
2012,05,25,16,15,24.20
2012,05,25,16,16,24.10
2012,05,25,16,17,24.00
2012,05,25,16,18,23.90
2012,05,25,16,19,23.80
2012,05,25,16,20,23.80
2012,05,25,16,21,23.80
2012,05,25,16,22,23.80
2012,05,25,16,23,23.70
2012,05,25,16,24,23.60
2012,05,25,16,25,23.60
2012,05,25,16,26,23.60
2012,05,25,16,27,23.70
2012,05,25,16,28,23.70
2012,05,25,16,29,23.70
2012,05,25,16,30,23.70
2012,05,25,16,31,23.70
2012,05,25,16,32,23.80
2012,05,25,16,33,23.80
2012,05,25,16,34,23.80
2012,05,25,16,35,23.90
2012,05,25,16,36,23.90
2012,05,25,16,37,23.90
2012,05,25,16,38,23.80
2012,05,25,16,39,23.80
2012,05,25,16,40,23.80
2012,05,25,16,41,23.90
2012,05,25,16,42,23.90
2012,05,25,16,43,23.90
2012,05,25,16,44,23.80
2012,05,25,16,45,23.70
2012,05,25,16,46,23.70
2012,05,25,16,47,23.60
2012,05,25,16,48,23.60
2012,05,25,16,49,23.60
2012,05,25,16,50,23.60
2012,05,25,16,51,23.60
2012,05,25,16,52,23.60
2012,05,25,16,53,23.70
2012,05,25,16,54,23.80
2012,05,25,16,55,23.80
2012,05,25,16,56,23.80
2012,05,25,16,57,23.70
2012,05,25,16,58,23.70
2012,05,25,16,59,23.70
2012,05,25,17,00,23.70
2012,05,25,17,01,23.80
2012,05,25,17,02,23.80
2012,05,25,17,03,23.80
2012,05,25,17,04,23.80
2012,05,25,17,05,23.80
2012,05,25,17,06,23.70
2012,05,25,17,07,23.70
2012,05,25,17,08,23.70
2012,05,25,17,09,23.60
2012,05,25,17,10,23.60
2012,05,25,17,11,23.50
2012,05,25,17,12,23.50
2012,05,25,17,13,23.50
2012,05,25,17,14,23.50
2012,05,25,17,15,23.50
2012,05,25,17,16,23.50
2012,05,25,17,17,23.40
2012,05,25,17,18,23.40
2012,05,25,17,19,23.40
2012,05,25,17,20,23.40
2012,05,25,17,21,23.50
2012,05,25,17,22,23.50
2012,05,25,17,23,23.60
2012,05,25,17,24,23.80
2012,05,25,17,25,23.80
2012,05,25,17,26,23.90
2012,05,25,17,27,23.90
2012,05,25,17,28,23.90
2012,05,25,17,29,23.90
2012,05,25,17,30,24.00
2012,05,25,17,31,24.00
2012,05,25,17,32,24.00
2012,05,25,17,33,24.00
2012,05,25,17,34,24.00